Simultaneous Nadir Overpasses (SNOs) Predictions

Prediction of SNOs between GOES-16 and AQUA Satellite Orbit:

Table of predicted SNOs for the next 14.0 days since TLE Epoch: 5/19/2017
Index Date Time (GOES-16) GOES-16 Lat,Lon AQUA Lat,Lon Distance(km) Time Diff (sec)
1 05/20/2017 07:25:13 -0.00, -89.50 -0.39, -87.82 191.55 80
2 05/20/2017 19:46:37 0.00, -89.49 -0.72, -93.01 400.29 80
3 05/22/2017 19:34:25 0.01, -89.49 -0.13, -90.05 64.20 80
4 05/24/2017 19:24:54 0.01, -89.49 0.53, -87.10 271.94 80
5 05/25/2017 07:46:09 -0.02, -89.51 0.60, -92.25 312.76 80
6 05/27/2017 07:31:18 -0.02, -89.51 -0.07, -89.30 23.34 80
7 05/29/2017 07:19:06 -0.03, -89.51 -0.68, -86.34 359.85 80
8 05/29/2017 19:40:29 0.03, -89.50 -0.43, -91.53 232.28 80
9 05/31/2017 19:30:58 0.03, -89.51 0.24, -88.59 105.14 80
10 06/01/2017 07:52:13 -0.03, -89.53 0.87, -93.74 478.68 80
11 06/02/2017 19:18:47 0.03, -89.52 0.87, -85.63 443.19 80




NCC Satellite Simultaneous Nadir Overpasses (SNOs) Prediction Service
